Location: Grossachsen
(49.5238°N, 8.6579°E)
Time: 05:49:16
(UTC+00:00)

Daily predictions for brighter satellites

Satellite Brightness Start Highest point End
(mag) Time Altitude Azimuth Time Altitude Azimuth Time Altitude Azimuth
Cosmos 2227 Rocket 2.6 00:02:00 10° NW 00:07:27 47° WSW 00:09:27 33° SSW
GEOS 3 Rocket 4.3 00:07:59 10° NE 00:13:05 54° NW 00:17:31 14° WSW
Cosmos 1238 Rocket 4.4 00:12:34 10° N 00:17:32 42° ENE 00:20:49 18° SE
IDEFIX/ARIANE 42P 4.0 00:14:11 10° NE 00:18:32 27° E 00:21:27 16° SE
Landsat 4 4.2 00:18:25 31° E 00:18:59 35° ENE 00:21:35 10° N
Cosmos 1441 Rocket 4.1 00:20:22 29° W 00:21:08 32° WNW 00:24:18 10° N
Meteor 2-2 Rocket 4.5 00:20:03 10° NNW 00:25:32 55° W 00:28:00 31° SSW
H-2A R/B 4.5 00:24:06 10° ENE 00:26:12 13° E 00:28:18 10° ESE
Cosmos 2221 3.0 00:22:14 10° N 00:26:26 55° ENE 00:28:33 27° SE
Cosmos 1315 Rocket 4.0 00:26:33 10° NW 00:29:45 25° W 00:30:17 25° WSW
SeaSat 1 4.3 00:26:15 10° ESE 00:30:28 30° NE 00:34:41 10° NNW
Okean 1 3.1 00:27:10 10° N 00:30:55 82° E 00:32:02 43° SSE
Cosmos 1125 Rocket 3.8 00:30:24 28° SW 00:33:07 61° WNW 00:38:21 10° NNE
Cosmos 1812 Rocket 3.5 00:29:02 10° N 00:33:26 80° E 00:35:20 33° SSE
Geosat 4.3 00:28:48 10° NNE 00:33:45 61° NW 00:36:37 25° SW
Meteor 1-26 Rocket 4.5 00:29:16 10° NNW 00:34:27 50° W 00:36:45 31° SSW
SL-23 DEB 4.4 00:36:43 30° SE 00:36:43 30° SE 00:39:09 10° E
Cosmos 1346 Rocket 4.4 00:35:27 17° SE 00:37:04 23° E 00:40:03 10° NE
Nadezhda 1 Rocket 3.9 00:30:54 10° N 00:37:09 87° W 00:40:50 26° S
Cosmos 2150 Rocket 4.2 00:36:24 31° S 00:39:01 70° ESE 00:44:27 10° NNE
CENTAUR R/B 3.9 00:37:30 15° SE 00:40:24 22° ESE 00:45:19 10° ENE
Meteor 2-6 Rocket 4.3 00:34:44 10° NNW 00:40:33 83° W 00:44:03 26° S
H-2A R/B 2.2 00:41:17 42° S 00:42:26 68° WSW 00:46:21 10° NNW
Cosmos 2058 Rocket 4.5 00:39:11 10° NNW 00:42:50 25° W 00:44:04 22° WSW
Okean 1-7 Rocket 3.7 00:42:59 32° S 00:45:00 68° E 00:49:31 10° NNE
Cosmos 2322 Rocket 4.1 00:43:02 11° SE 00:46:43 20° E 00:50:41 10° NE
Cosmos 614 Rocket 4.4 00:42:23 10° NW 00:47:08 42° WSW 00:48:55 30° SSW
Cosmos 1745 Rocket 4.0 00:44:17 27° S 00:48:03 87° E 00:54:27 10° N
Cosmos 1825 Rocket 4.2 00:46:00 25° SSE 00:48:11 47° E 00:52:23 10° NNE
ADEOS II 4.4 00:46:56 10° NE 00:49:56 15° E 00:52:54 10° ESE
ATLAS 5 CENTAUR R/B 2.6 00:46:38 10° NW 00:50:48 51° NE 00:55:57 10° ESE
MOZ.5/SAFIR/RUBIN 5/SL-8 4.4 00:52:02 14° SE 00:55:56 55° ENE 01:00:32 10° N
Cosmos 2263 Rocket 2.8 00:51:21 10° NW 00:56:30 38° WSW 00:58:41 27° SSW
Cosmos 1709 Rocket 4.1 00:57:16 24° S 01:01:23 81° E 01:07:42 10° N
CZ-2C R/B 3.2 00:56:56 10° N 01:01:35 53° WNW 01:04:01 26° SW
USA 32 4.2 01:00:07 28° SSW 01:02:48 59° W 01:07:59 10° N
Meteor 1-27 Rocket 4.4 00:57:19 10° N 01:03:12 57° ENE 01:08:59 10° SSE
Cosmos 2082 3.9 00:57:44 10° NW 01:03:14 52° WSW 01:06:25 24° S
Cosmos 2369 3.7 01:01:32 26° SW 01:04:51 79° WNW 01:10:32 10° NNE
MSX 4.1 01:00:52 10° NNE 01:06:34 62° ESE 01:10:26 21° S
Cosmos 1602 Rocket 3.8 01:07:34 29° SW 01:09:30 54° WNW 01:13:48 10° N
Cosmos 2298 Rocket 4.1 01:07:44 26° SW 01:10:47 71° WNW 01:16:07 10° NNE
Cosmos 1758 Rocket 4.5 01:09:37 24° WSW 01:11:39 37° WNW 01:15:48 10° N
FENGYUN 3A 4.3 01:09:24 10° NNE 01:14:40 49° E 01:18:43 17° S
SL-16 R/B 2.6 01:13:38 21° S 01:17:13 54° ESE 01:22:45 10° NE
Cosmos 2219 4.1 01:13:31 10° NW 01:18:28 31° WSW 01:20:47 23° SW
Cosmos 2333 Rocket 3.3 01:15:34 16° SSE 01:19:35 36° ESE 01:24:44 10° NE
USA 290 4.2 01:17:47 10° WNW 01:19:34 16° W 01:19:34 16° W
Meteor 1-10 Rocket 4.3 01:15:14 10° NNW 01:20:58 74° W 01:25:25 18° S
Spot 2 4.4 01:20:18 28° SSW 01:21:50 41° W 01:25:38 10° NNW
USA 276 3.3 01:22:20 22° SE 01:22:20 22° SE 01:24:12 10° E
Cosmos 1842 Rocket 4.1 01:18:24 10° N 01:22:45 56° ENE 01:26:56 11° SSE
BREEZE M DEB (TANK) 2.3 01:21:29 16° W 01:23:20 64° SSW 01:27:56 10° ESE
BREEZE-M DEB 4.1 01:09:32 10° W 01:24:13 86° S 01:28:04 10° ESE
ATLAS 2AS CENTAUR R/B 3.2 01:19:05 10° NW 01:25:07 36° WSW 01:29:12 19° S
Meteor 2-4 Rocket 4.4 01:21:17 10° N 01:26:32 51° ENE 01:31:44 10° SSE
Cosmos 44 Rocket 3.7 01:25:06 23° S 01:27:45 48° ESE 01:32:19 10° NE
Cosmos 1707 3.4 01:26:21 10° N 01:29:30 41° ENE 01:32:32 11° SSE
Cosmos 921 Rocket 4.0 01:25:43 10° NW 01:29:35 31° W 01:31:10 24° SW
Cosmos 1743 2.3 01:28:38 29° S 01:30:12 87° E 01:33:35 10° N
Cosmos 1980 Rocket 3.2 01:25:56 14° WSW 01:30:17 37° NW 01:35:31 10° NNE
NPP 3.6 01:28:11 10° NNE 01:33:38 90° ESE 01:37:32 20° SSW
Meteor 1-20 Rocket 4.3 01:33:04 20° SSW 01:37:12 78° WNW 01:42:59 10° N
Cosmos 2151 3.6 01:35:22 22° SW 01:37:31 40° WNW 01:41:26 10° N
Lacrosse 5 rocket 3.2 01:36:07 10° W 01:37:12 14° WSW 01:37:12 14° WSW
KORONAS-FOTON 3.7 01:35:45 10° N 01:39:18 72° E 01:42:14 14° SSE
Cosmos 1023 Rocket 4.4 01:34:29 10° NNW 01:39:40 80° WSW 01:44:51 10° SSE
CZ-2C R/B 4.1 01:37:53 17° SW 01:40:22 22° W 01:44:41 10° NW
Cosmos 1140 Rocket 3.4 01:36:33 10° NNW 01:41:44 81° WSW 01:46:55 10° SSE
Resurs 1-4 Rocket 2.5 01:38:28 10° NNE 01:43:45 59° ESE 01:48:25 13° S
Cosmos 1842 3.2 01:45:25 10° N 01:48:49 66° ENE 01:52:08 10° SSE
Cosmos 1076 Rocket 3.5 01:46:03 20° SSW 01:48:55 74° W 01:53:10 10° N
Cosmos 1844 Rocket 2.7 01:47:04 10° NW 01:52:38 62° WSW 01:58:07 10° SSE
SJ 16-02 4.4 01:50:06 10° N 01:52:52 16° NE 01:55:36 10° E
Cosmos 1238 Rocket 4.5 01:49:35 10° NNW 01:54:01 29° W 01:56:48 17° SW
Cosmos 407 Rocket 3.7 01:51:24 10° NNW 01:56:40 78° ENE 02:01:58 10° SSE
Cosmos 1844 3.7 01:51:19 10° NW 01:56:58 64° WSW 02:02:37 10° SSE
CZ-2D R/B 2.3 01:52:06 10° NNE 01:57:19 70° ESE 02:02:07 12° S
IDEFIX/ARIANE 42P 3.0 01:53:16 10° N 01:58:15 49° WNW 02:02:09 16° SW
Cosmos 1151 Rocket 4.2 01:54:41 10° N 01:58:49 42° ENE 02:02:53 10° SSE
Cosmos 2184 Rocket 4.2 01:54:15 10° S 02:00:36 76° E 02:06:59 10° NNE
EP 1 4.2 01:58:01 10° NW 02:00:37 67° SW 02:03:33 10° SSE
H-2A R/B 2.0 01:57:51 10° NNE 02:02:05 75° WNW 02:05:29 16° SSW
Cosmos 2221 4.3 02:00:24 10° NW 02:03:05 16° W 02:04:55 13° WSW
Cosmos 1953 Rocket 4.0 02:04:16 17° SW 02:07:21 46° WNW 02:11:32 10° N
ATLAS CENTAUR R/B 3.7 02:05:48 10° SE 02:07:24 12° ESE 02:09:01 10° E
SeaSat 1 2.5 02:02:49 10° SSE 02:07:37 56° WSW 02:12:27 10° NW
Cosmos 2360 Rocket 2.4 02:03:04 13° SSW 02:07:58 67° ESE 02:13:34 10° NNE
Cosmos 1346 Rocket 3.8 02:09:59 15° WSW 02:12:19 28° WNW 02:15:35 10° N
Cosmos 2278 3.9 02:08:06 15° SW 02:12:49 66° WNW 02:18:28 10° NNE
Cosmos 2154 Rocket 4.1 02:06:44 10° S 02:12:59 81° E 02:19:20 10° NNE
ARIANE 6 FM1 Upper Stage 4.1 02:10:40 10° S 02:14:01 26° ESE 02:17:24 10° ENE
Cosmos 1733 3.2 02:14:22 18° SW 02:16:16 40° WNW 02:19:06 10° N
Molniya-1 4.4 02:19:20 13° WSW 02:22:35 69° NW 02:32:16 10° NE
Cosmos 2219 Rocket 2.8 02:17:17 10° S 02:22:40 52° ESE 02:28:06 10° NE
H-2A R/B 3.4 02:20:36 10° NNE 02:25:04 33° E 02:29:29 10° SSE
Cosmos 2074 Rocket 4.0 02:19:39 10° SSW 02:25:50 72° WNW 02:32:06 10° N
Cosmos 405 Rocket 3.9 02:26:05 10° SSE 02:28:59 31° E 02:31:55 10° NNE
CENTAUR R/B 2.6 02:24:36 12° SW 02:29:56 82° NW 02:37:13 10° NE
Cosmos 2322 Rocket 2.3 02:24:50 12° SW 02:30:07 76° WNW 02:35:47 10° NNE
ADEOS II 2.1 02:24:56 10° NNE 02:30:11 87° WNW 02:35:26 10° SSW
ALOS 2.2 02:28:09 10° NNE 02:32:44 80° WNW 02:37:18 10° SSW
ATLAS 5 CENTAUR R/B 2.6 02:29:28 10° WNW 02:33:36 33° WSW 02:38:34 10° S
Meteor 2-13 Rocket 4.5 02:28:36 10° NNW 02:34:45 80° W 02:40:53 10° S
Meteor 1-28 Rocket 3.8 02:32:42 10° SSE 02:35:59 52° ENE 02:39:16 10° N
Meteor 1-18 Rocket 4.2 02:33:16 10° NNW 02:38:47 66° W 02:44:15 10° S
Cosmos 2251 Rocket 3.5 02:34:02 10° NNW 02:39:21 77° WSW 02:44:35 10° SSE
NOSS 3-2 (A) 3.4 02:37:48 10° SSW 02:42:49 67° SE 02:48:52 10° NE
DMSP B5D2-2 4.1 02:37:54 10° S 02:43:06 67° WSW 02:48:19 10° NNW
Envisat 3.0 02:38:52 10° NNE 02:43:57 77° WNW 02:49:00 10° SSW
Cosmos 1420 Rocket 4.2 02:40:07 10° SSW 02:45:21 73° ESE 02:50:35 10° NNE
SL-23 DEB 3.8 02:43:44 10° W 02:46:52 67° N 02:50:50 10° ENE
Cosmos 2278 Rocket 4.0 02:46:27 10° NNW 02:51:45 38° NE 02:57:01 10° ESE
Cosmos 1190 Rocket 4.0 02:47:50 10° NNW 02:53:01 75° WSW 02:58:10 10° SSE
NOAA 11 4.4 02:48:37 10° N 02:53:58 58° WNW 02:59:15 10° SSW
Cosmos 1437 Rocket 3.6 02:50:28 10° N 02:54:06 51° ENE 02:57:40 10° SSE
USA 276 1.5 02:52:31 10° WSW 02:55:12 81° S 02:57:40 10° E
SL-16 R/B 2.6 02:49:27 10° S 02:55:43 73° WSW 03:02:01 10° NNW
Cosmos 2056 Rocket 3.9 02:52:45 10° S 02:57:51 62° ESE 03:02:55 10° NNE
Cosmos 1371 Rocket 4.5 02:55:14 10° S 03:00:29 64° ESE 03:05:43 10° NNE
SL-16 R/B 3.3 02:56:30 10° WSW 03:01:35 33° NW 03:06:42 10° NNE
